{"data":{"norad_id":39059,"epoch":"2026-09-20T05:00:52.886016Z","epoch_age_seconds":58708,"freshness":"FRESH","line1":"1 39059U 13001C   26263.20894544  .00000056  00000+0  33515-3 0  9996","line2":"2 39059  82.5056 162.8325 0025457 184.3395 175.7467 12.42942714620367","mean_motion":12.42942714,"eccentricity":0.0025457,"inclination_deg":82.5056,"raan_deg":162.8325,"arg_perigee_deg":184.3395,"mean_anomaly_deg":175.7467,"bstar":0.00033515,"rev_number":62036,"period_min":115.85409237131,"perigee_km":1474.1127843535,"apogee_km":1514.1937630531,"semimajor_km":7872.2902737033,"source":"CELESTRAK","updated_at":"2026-09-20T09:00:13.899775Z"}}